Location: Treviso
(45.6669°N, 12.2430°E)
Time: 11:25:41
(UTC+01:00)

ISS - Visible Passes

Search period start: 09 November 2025 00:00
Search period end: 19 November 2025 00:00
Orbit: 415 x 421 km, 51.6° (Epoch: 08 November)

Date Brightness Start Highest point End Pass type
(mag) Time Alt. Az. Time Alt. Az. Time Alt. Az.
11 Nov -1.3 18:13:39 10° SSE 18:13:57 11° SSE 18:13:57 11° SSE visible
12 Nov -1.6 18:59:58 10° SW 19:01:17 21° SSW 19:01:17 21° SSW visible
13 Nov -2.7 18:12:22 10° SSW 18:15:17 28° SE 18:15:31 28° SE visible
14 Nov -1.9 17:25:04 10° S 17:27:26 18° SE 17:29:39 11° E visible
14 Nov -2.2 19:00:31 10° WSW 19:02:36 35° WSW 19:02:36 35° WSW visible
15 Nov -3.8 18:12:30 10° SW 18:15:50 71° SSE 18:16:38 47° E visible
16 Nov -3.2 17:24:37 10° SW 17:27:49 44° SE 17:30:35 13° ENE visible
16 Nov -1.9 19:01:25 10° W 19:03:30 30° WNW 19:03:30 30° WNW visible
17 Nov -3.4 18:13:09 10° WSW 18:16:27 55° NNW 18:17:22 39° NNE visible
18 Nov -3.7 17:24:57 10° WSW 17:28:18 79° NNW 17:31:11 13° ENE visible
18 Nov -1.5 19:02:23 10° WNW 19:04:06 22° NW 19:04:06 22° NW visible
